Regional Weather Roundup
Issued by NWS Wakefield, VA

Home | Current Version | Previous Version | Graphics & Text | Print | Product List | Glossary On
Versions: 1 2 3 4 5 6 7 8 9 10 11 12 13 14 15 16 17 18 19 20 21 22 23 24 25 26 27 28 29 30 31 32 33 34 35 36 37 38 39 40 41 42 43 44 45 46 47 48 49 50
000
ASUS41 KAKQ 200710
RWRAKQ

REGIONAL WEATHER ROUNDUP
NATIONAL WEATHER SERVICE WAKEFIELD VA
300 AM EDT WED AUG 20 2014

Note: "fair" indicates few or no clouds below 12,000 feet with no
significant weather and/or obstructions to visibility. * = Denotes
station may not report precipitation (e.g., rain,snow,etc.),
thunder or fog.

VAZ042-051-052>054-056-200800-
NORTHERN VIRGINIA

CITY           SKY/WX    TMP DP  RH WIND       PRES   REMARKS
WASH NATIONAL  PTCLDY    74  64  71 S3        29.93S
DULLES         MOCLDY    71  68  90 S5        29.92F
FORT BELVOIR   MOCLDY    68  66  94 CALM      29.93S
QUANTICO       PTCLDY    75  69  81 S5        29.92F
FREDERICKSBRG* PTCLDY    70  70 100 CALM      29.91S
STAFFORD*        N/A     69  69 100 CALM      29.96F FOG
WARRENTON      CLOUDY    72  72 100 CALM      29.92S FOG
CULPEPER*      PTCLDY   N/A N/A N/A CALM      29.92F
MANASSAS*      CLOUDY    72  72 100 CALM      29.92S
LEESBURG*      CLOUDY    72  70  94 CALM      29.93F
WINCHESTER     CLEAR     68  66  94 CALM      29.92S
$$

VAZ048-049-060>072-079>083-200800-
CENTRAL AND SOUTH CENTRAL VIRGINIA...AND NORTH CENTRAL NORTH CAROLINA

CITY           SKY/WX    TMP DP  RH WIND       PRES   REMARKS
RICHMOND       CLEAR     72  69  90 N3        29.90S
CHESTERFIELD*  SUNNY    N/A N/A N/A CALM      29.92R
HANOVER        PTCLDY    68  68 100 CALM      29.93S FOG
TAPPAHANNOCK*  CLEAR     67  65  93 CALM      29.92S FOG
CHARLOTTSVILLE CLOUDY    72  70  93 CALM      29.92F
ORANGE*        CLOUDY    70  68  94 CALM      29.94S
LOUISA*        CLOUDY    72  70  94 E3        29.92S FOG
FARMVILLE*     CLOUDY    72  72 100 CALM      29.90S FOG
SOUTH HILL*    PTCLDY    72  72 100 CALM      29.95S FOG
ROANOKE RAPIDS SUNNY     70  70 100 CALM      29.89R FOG
RALEIGH        PTCLDY    73  69  87 E3        29.90R
$$

VAZ088>098-200800-
SOUTHEAST VIRGINIA

CITY           SKY/WX    TMP DP  RH WIND       PRES   REMARKS
NORFOLK        PTCLDY    75  70  84 NE7       29.87S
VIRGINIA BEACH CLEAR     74  71  91 NE6       29.86S
NORFOLK NAVAL  PTCLDY    76  71  85 NE8       29.89S
WEST POINT*    CLEAR     70  67  92 CALM      29.91S
NEWPORT NEWS   CLEAR     74  69  85 NE3       29.88S
LANGLEY AFB    MOCLDY    74  74 100 NE8       29.87S
FORT EUSTIS    CLEAR     72 N/A N/A NE2       29.87S
WILLIAMSBURG*  CLEAR     72  72 100 CALM      29.90R
FRANKLIN*      CLEAR     70  70 100 CALM      29.87F
WAKEFIELD      CLEAR     72  69  90 CALM      29.88S
$$

VAZ020-022-025-037-045-200800-
WESTERN AND SOUTHWEST VIRGINIA

CITY           SKY/WX    TMP DP  RH WIND       PRES   REMARKS
STAUNTON*      CLOUDY    68  66  93 CALM      29.96F FOG
HOT SPRINGS VA NOT AVBL
LYNCHBURG      CLOUDY    70  70 100 CALM      29.95S FOG
DANVILLE       PTCLDY    70  67  90 CALM      29.92R FOG
MARTINSVILLE   MOCLDY    70  69  99 CALM      29.97R FOG
ROANOKE        CLEAR     65  64  97 NW3       29.98S
BLACKSBURG     FOG       64  64 100 CALM      30.02S VSB 1
DUBLIN*        FOG       66  66 100 CALM      30.01S VSB 1/4
MARION*        FOG       64  63  96 CALM      30.05S VSB 1/4
HILLSVILLE*    FOG       64  64  99 CALM      30.03S VSB<1/4
RICHLANDS*     FOG       68  67  94 SE5       30.03F VSB 1/4
WISE*          FOG       64  64 100 SW6       30.03F VSB 1/2
ABINGDON*      PTCLDY    67  67 100 CALM      30.00F FOG
$$

MDZ021>025-VAZ099-100-200800-
SOUTHERN MARYLAND AND THE DELMARVA PENINSULA

CITY           SKY/WX    TMP DP  RH WIND       PRES   REMARKS
PATUXENT RIVER CLEAR     68  64  87 E5        29.91S
BAY BRIDGE APT   N/A     68  64  88 CALM      29.93S
LEONARDTOWN    CLEAR     64  61  88 CALM      29.94R
DOVER          CLEAR     65  64  97 N3        29.91S
GEORGETOWN     CLEAR     65  62  90 VRB5      29.92F
EASTON         CLEAR     66  66 100 CALM      29.96S
CAMBRIDGE      CLEAR     63  61  94 CALM      29.91S
SALISBURY      CLEAR     67  62  84 CALM      29.91S
OCEAN CITY     CLEAR     73  65  75 E8        29.90F
WALLOPS ISLAND CLEAR     73  66  78 E10       29.90S
ACCOMACK*        N/A     64  63  94 CALM      29.89S FOG
$$

NCZ012>017-030>032-200800-
EASTERN NORTH CAROLINA

CITY           SKY/WX    TMP DP  RH WIND       PRES   REMARKS
ELIZABETH CITY MOCLDY    75  73  93 N7        29.86S
AHOSKIE*       CLEAR     70  69  97 CALM      29.88S
EDENTON*       CLEAR     71  70  96 CALM      29.87R FOG
CURRITUCK*     CLOUDY    76  73  88 N7        29.87S FOG
KILL DEVIL HLS CLEAR     74  73  94 CALM      29.84S
MANTEO         CLEAR     72  72 100 CALM      29.85S
CAPE HATTERAS  PTCLDY    75  74  96 NE5       29.84F
GOLDSBORO      CLEAR     74  74  98 NE5       29.86S
WASHINGTON     CLEAR     72  71  97 N5        29.87F
GREENVILLE     CLEAR     72  72 100 CALM      29.90S
NEW BERN       CLEAR     76  72  87 NE3       29.87S
WILMINGTON     CLEAR     75  73  93 SW5       29.87S
$$

VAZ048-200800-
ELSEWHERE

CITY           SKY/WX    TMP DP  RH WIND       PRES   REMARKS
HARRISBURG PA  MOCLDY    71  65  81 SE3       29.92S
BALTIMORE      PTCLDY    66  63  90 CALM      29.92F
ANNAPOLIS      CLEAR     72  64  76 CALM      29.92S
ANDREWS AFB    CLEAR     67  66  99 CALM      29.92F
WILMINGTON DE  CLOUDY    72  66  81 VRB3      29.94S
PHILADELPHIA   CLOUDY    73  64  73 S3        29.93F
WILDWOOD NJ*   PTCLDY    66  61  82 CALM      29.93S
ATLANTIC CITY  MOCLDY    65  63  93 N3        29.93S
HENDERSON NC   CLEAR     71  69  95 CALM      29.91R FOG
GREENSBORO     MOCLDY    73  71  93 N5        29.92R
ROCKY MOUNT    CLEAR     72  70  93 CALM      29.88F
FAYETTEVILLE   CLEAR     74  72  93 CALM      29.88R
CHARLOTTE      PTCLDY    69  68  96 CALM      29.93R
$$

VAZ100-200800-
MARINE

STATION/POSITION TIME  TEMP    WIND        PRES    WAVE   SWELL
                       AIR SEA DIR/SP/G            HT/PER HT/PER
                 (UTC) (F)     (DEG/KT/KT) (MB)    (FT/S) (FT/S)
44066 TX TWR #4  0700   72 73   60/ 10/ 12 1013.0F   2/ 4   2/ 8
CAPE MAY NJ      0700   70 78   CALM  /  1 1012.7S
LEWES DE         0700   72 74  100/  3/  4 1012.7S
15NM E FENWICK I 0700   74 75              1012.4F   4/ 6
OCEAN-CITY-INLET 0700   74 75   80/  6/  9 1012.1S
WACHAPREAGUE VA  0700   72 78  360/  4/  5 1011.8S
THOMAS POINT MD  0700   74 77  130/  6/  7 1013.8F
GOOSES REEF MD   0700   74     140/  2/  4 1013.5S
COVE POINT MD    0700   73     110/  5/  6 1012.7S
SOLOMONS ISLAND  0700      79                N/A
BISHOPS HEAD MD  0700   72 77   50/  6/  7 1012.2S
PINEY POINT MD   0700           20/  5/  5   N/A
POTOMAC MD       0700   75     100/  6/  8 1011.8S
CAMBRIDGE MD     0700   72 78   80/  3/  4 1012.6R
LEWISETTA VA     0700   76 79  100/  7/  8 1012.1R
RAPPAHANNOCK LGT 0700           40/  7/  8 1012.4S
STINGRAY PT      0700   76      80/  8/ 10 1012.6F
YORK RVR RNG VA  0700   76      70/ 10/ 11 1011.2F
YORKTOWN VA      0700   75 80   40/  6/  7 1011.5R
JAMESTOWN VA     0700   72      70/  4/  6   N/A
DOMINION TERM VA 0700   75      40/  2/  4 1011.6S
KIPTOPEKE VA     0700      81   20/  3/  4   N/A
CHES BAY BRIDGE  0700   76 78   50/ 11/ 13 1010.9R
CAPE HENRY VA    0700   76      50/ 12/ 13 1010.2S
CHESAPEAKE LGHT  0600   76      60/ 12/ 13 1012.1F
WILLOUBY STN VA  0700   76      40/  8/  9 1010.5R
S CRANEY ISL VA  0700           30/  7/  9 1011.2R
CAPE HENRY BUOY  0700      76                N/A     4/ 5
1ST LANDING BUOY 0700   76      60/ 10/ 12 1011.1S
CAPE CHARLES BUO 0700      76                N/A     3/ 6   2/ 6
OFFSHORE WE BUOY 0700      76                N/A     4/ 6   3/ 6
64NM E OF VA BCH 0700   77 78   30/ 10/ 12 1010.4F   3/ 5   3/ 5
DUCK PIER NC     0700   77 78   30/  8/ 10 1010.0R
44056 DUCK FRF   0700                        N/A     2/ 6
OREGON INLET NC  0700   76 81   20/  3/  3 1010.7R
HATTERAS NC      0700   78 82   60/  2/  3 1010.7F
DIAMOND SHLS NC  0700   79     310/  6/  8 1010.0F   3/ 7   2/ 7
CAPE LOOKOUT NC  0600   80     340/  5/  6 1010.4F
$$


USA.gov is the U.S. government's official web portal to all federal, state and local government web resources and services.